STARLINK-11568, 63307

Orbit data source: Space-Track

STARLINK-11568, 63307 is a payload satellite in LEO that was launched on Tue, 18 Mar 2025 UTC via an FALCON 9 launch vehicle from the Air Force Eastern Test Range (AFETR). Payload-class satellites include a variety of spacecraft equipped with specific instruments for various scientific and technological missions. These include communications satellites like Starlink; space stations such as the ISS; scientific satellites like the Hubble; Earth observation satellites from companies like Planet Labs, Umbra, and HawkEye 360; GPS; miniature CubeSats for education and research; and military/defense satellites.

Loading next visibility...
Identifier
63307, 2025-057A
Orbit
LEO
Last TLE update
13 hours ago
Origin
Manufacturer
SpaceX/Seattle
Mission
Operational Commercial Communications
Bus & Motor
STARLINK V2M, Unknown motor
Mass
730 kg wet, ~700 kg dry
Launch date (UTC)
2025-03-18 (2 months ago)
Launch vehicle
FALCON 9
Launch site
Air Force Eastern Test Range (AFETR)
Object type
Payload
Rocket body
Debris
Shape & HBR
Box + 2 Pan, 29 m
Radar Cross Section
36.964 m², Large (>1 m²)

Expand to show TLE details & history

TLE from 13 hours ago
0 STARLINK-11568
1 63307U 25057A   25140.16668981  .00004520  00000-0  38731-4 0  9992
2 63307  42.9992 233.4749 0001790 254.8822 249.0591 15.70822026  9851
Epoch: 2025-05-20T04:00Z
TLE epoch observation values (Epoch: 2025-05-20T04:00:01.999Z)
Latitude
23.76296°
Longitude
87.39558°
Altitude
356.676 km
Speed
7.699 km/s
True Right ascension
01h 41m 53s
True Declination
23° 37' 44"
Sunlit
Object was in daylight at epoch
Visualization orbit readout
Latitude
23.76362°
Longitude
-39.9353°
Altitude
357.115 km
Speed
7.698 km/s
Apparent Right ascension
15h 52m 35s
Apparent Declination
-7° 39' 04"
Sunlit
Object is in full shadow
Visualization observer readout
Local Sidereal Time
02:10:37
Azimuth
317.887° NNW
Elevation
-50.495°
Doppler factor
1
Orbital elements
Apogee altitude
359.734 km
Perigee altitude
357.322 km
Semi-major axis
6,736.665 km
Eccentricity
0.00018
Inclination
42.9992°
RAAN
233.4749°
Arg. of periapsis
254.8822°
True anomaly
Unknown
Mean anomaly
249.0591°
Eccentric anomaly
Unknown
Mean motion
3.92533 °/min
Orbital period
91.71 mins
BSTAR
0.000038731
Loading maneuver chart data...
Loading SW <> Apogee altitude chart data...
Loading historical data...
Loading historical data...
Loading historical data...
Loading historical data...
Loading historical data...
Loading historical data...
Loading historical data...

STARLINK-11568 Visibility forecast

Observer location: undefined°, undefined°

Span
Click to sort rows by Start time (UTC) header in descending order
Start Az.
Max El. time (UTC)
Max El. Az.
Max El.
End time (UTC)
End Az.
4 mins2025-05-21 10:10:38.173Z243.824° WSW2025-05-21 10:11:38.173Z229.266° WSW41.769°2025-05-21 10:14:38.173Z73.424° E
4 mins2025-05-21 11:46:38.173Z293.561° NW2025-05-21 11:48:38.173Z22.071° NNE33.19°2025-05-21 11:50:38.173Z68.556° E
|